N3288C KHSV-

Flight info

Callsign N3288C
Flight time N/A
Altitude
Route PATTERN
Aircraft BT36/L-DOV/C

Departure

Time 2026-05-05 15:55
Airport Huntsville International Airport (KHSV)

Arrival

Time N/A
Airport -
Time Latitude Longitude Altitude Speed Heading
2026-05-05 15:48 34.63990 -86.76237 628 ft 0 kts 107°
2026-05-05 15:51 34.63989 -86.76234 628 ft 3 kts 112°
2026-05-05 15:51 34.63937 -86.76238 625 ft 14 kts 191°
2026-05-05 15:51 34.63871 -86.76260 631 ft 1 kts 195°
2026-05-05 15:52 34.63847 -86.76295 626 ft 11 kts 263°
2026-05-05 15:52 34.63931 -86.76360 626 ft 24 kts
2026-05-05 15:52 34.64202 -86.76276 629 ft 49 kts 19°
2026-05-05 15:52 34.64310 -86.76356 629 ft 25 kts 181°
2026-05-05 15:53 34.64163 -86.76408 627 ft 21 kts 253°
2026-05-05 15:53 34.64114 -86.76570 629 ft 20 kts 196°
2026-05-05 15:53 34.63779 -86.76577 629 ft 76 kts 180°
2026-05-05 15:53 34.63146 -86.76576 699 ft 101 kts 181°
2026-05-05 15:54 34.62395 -86.76578 884 ft 109 kts 181°
2026-05-05 15:54 34.61781 -86.76092 1021 ft 121 kts 115°
2026-05-05 15:54 34.61884 -86.75042 1121 ft 127 kts 60°
2026-05-05 15:54 34.62587 -86.74463 1192 ft 129 kts 17°
2026-05-05 15:55 34.63400 -86.74343 1572 ft 100 kts 357°
2026-05-05 15:55 34.64052 -86.74469 2059 ft 89 kts 336°
2026-05-05 15:55 34.64622 -86.74789 2566 ft 88 kts 332°
2026-05-05 15:55 34.65030 -86.75195 2298 ft 75 kts 273°
2026-05-05 15:56 34.65728 -86.75884 1458 ft 151 kts 14°
2026-05-05 15:56 34.66546 -86.75671 1538 ft 100 kts 341°
2026-05-05 15:56 34.67167 -86.76056 1288 ft 93 kts 279°
2026-05-05 15:56 34.66797 -86.76479 1039 ft 87 kts 185°
2026-05-05 15:57 34.66211 -86.76521 835 ft 82 kts 185°
2026-05-05 15:57 34.65660 -86.76538 735 ft 76 kts 186°
2026-05-05 15:57 34.65142 -86.76550 662 ft 74 kts 187°
2026-05-05 15:57 34.64705 -86.76554 672 ft 50 kts 185°
2026-05-05 15:58 34.64362 -86.76522 632 ft 44 kts 179°
2026-05-05 15:58 34.64154 -86.76408 632 ft 22 kts 98°
2026-05-05 15:58 34.64212 -86.76270 629 ft 4 kts 67°
2026-05-05 15:59 34.64215 -86.76267 631 ft 3 kts 32°
2026-05-05 15:59 34.64198 -86.76290 633 ft 10 kts 219°
2026-05-05 15:59 34.64154 -86.76382 627 ft 13 kts 264°
2026-05-05 16:00 34.64154 -86.76482 626 ft 11 kts 271°
2026-05-05 16:00 34.64179 -86.76555 626 ft 10 kts 357°
2026-05-05 16:00 34.64196 -86.76558 626 ft 2 kts 335°
2026-05-05 16:00 34.64136 -86.76571 627 ft 31 kts 180°
2026-05-05 16:01 34.63756 -86.76585 628 ft 71 kts 190°
2026-05-05 16:01 34.63263 -86.76567 762 ft 75 kts 182°
2026-05-05 16:01 34.62787 -86.76365 992 ft 88 kts 136°
2026-05-05 16:01 34.62839 -86.75510 1100 ft 113 kts 59°
2026-05-05 16:02 34.63523 -86.75080 1219 ft 116 kts 13°
2026-05-05 16:02 34.64316 -86.74896 1274 ft 115 kts
2026-05-05 16:02 34.65128 -86.74759 1297 ft 123 kts
2026-05-05 16:02 34.65972 -86.74718 1301 ft 112 kts 341°
2026-05-05 16:03 34.66437 -86.75265 1232 ft 89 kts 282°
2026-05-05 16:03 34.66401 -86.75925 1003 ft 71 kts 212°
2026-05-05 16:03 34.66006 -86.76321 870 ft 77 kts 209°
2026-05-05 16:03 34.65505 -86.76539 701 ft 77 kts 187°
2026-05-05 16:04 34.65029 -86.76553 641 ft 53 kts 182°
2026-05-05 16:04 34.64754 -86.76557 641 ft 19 kts 179°
2026-05-05 16:04 34.64736 -86.76557 641 ft 0 kts 183°
2026-05-05 16:05 34.64675 -86.76560 638 ft 17 kts 180°
2026-05-05 16:05 34.64511 -86.76563 636 ft 33 kts 181°
2026-05-05 16:05 34.64219 -86.76569 627 ft 49 kts 181°
2026-05-05 16:06 34.63845 -86.76577 626 ft 59 kts 181°
2026-05-05 16:06 34.63419 -86.76582 639 ft 62 kts 184°
2026-05-05 16:06 34.63003 -86.76588 647 ft 59 kts 186°
2026-05-05 16:06 34.62595 -86.76591 658 ft 58 kts 184°
2026-05-05 16:07 34.62165 -86.76531 742 ft 65 kts 164°
2026-05-05 16:07 34.61870 -86.76030 813 ft 87 kts 108°
2026-05-05 16:07 34.61879 -86.75332 960 ft 85 kts 96°
2026-05-05 16:07 34.62083 -86.74553 1019 ft 110 kts 60°
2026-05-05 16:08 34.62768 -86.74086 1187 ft 121 kts
2026-05-05 16:08 34.63640 -86.74156 1268 ft 128 kts 346°
2026-05-05 16:08 34.64463 -86.74404 1496 ft 119 kts 340°
2026-05-05 16:08 34.65282 -86.74696 1653 ft 123 kts 345°
2026-05-05 16:09 34.66142 -86.74843 1868 ft 122 kts 349°
2026-05-05 16:09 34.66982 -86.75087 2076 ft 128 kts 341°
2026-05-05 16:09 34.67750 -86.75459 2409 ft 108 kts 311°
2026-05-05 16:09 34.68042 -86.76295 2277 ft 118 kts 258°
2026-05-05 16:10 34.67489 -86.76900 2057 ft 110 kts 180°
2026-05-05 16:10 34.66746 -86.76648 1586 ft 115 kts 174°
2026-05-05 16:10 34.65964 -86.76555 1063 ft 111 kts 191°
2026-05-05 16:10 34.65251 -86.76540 699 ft 82 kts 198°
2026-05-05 16:11 34.64803 -86.76557 651 ft 60 kts 185°
2026-05-05 16:11 34.63281 -86.75814 1301 ft 108 kts 96°
2026-05-05 16:12 34.63611 -86.74958 1543 ft 118 kts 52°
2026-05-05 16:12 34.65225 -86.74307 1711 ft 133 kts 360°
2026-05-05 16:13 34.67451 -86.74930 1510 ft 87 kts 250°
2026-05-05 16:13 34.67144 -86.75517 1323 ft 87 kts 228°
2026-05-05 16:13 34.66874 -86.76169 1075 ft 83 kts 231°
2026-05-05 16:14 34.65928 -86.76536 751 ft 78 kts 183°
2026-05-05 16:14 34.64902 -86.76555 643 ft 48 kts 181°
2026-05-05 16:15 34.64486 -86.76479 635 ft 23 kts 91°